CZ-4C DEB, 43601

Orbit data source: Space-Track

CZ-4C DEB, 43601 is space debris in SSO originally from a launch on Tue, 09 Aug 2016 UTC launched from the Taiyaun Space Center, China (TSC). Debris objects in space refer to the collection of defunct objects orbiting the Earth. Examples of debris include non-operational satellites, rocket bodies, and fragments generated from explosions, collisions, or faulty payload assembly.

Loading next visibility...
Identifier
43601, 2016-049F
Orbit
SSO
Country
Flag of CNCN / PRC
Related business
Manufacturer
Unknown
Mission
Spacecraft
Bus & Motor
Unknown
Mass
Unknown
Launch date (UTC)
2016-08-09 (9 years ago)
Launch vehicle
Unknown
Launch site
Taiyaun Space Center, China (TSC)
Object type
Payload
Rocket body
Debris
Shape & HBR
Unknown shape, 0.1 m
Radar Cross Section
Small (<0.1 m²)

Expand to show TLE details & history
Last TLE update: 17 hours ago

TLE from 17 hours ago
0 CZ-4C DEB
1 43601U 16049F   25296.56233267  .00022300  00000-0  20614-2 0  9994
2 43601  98.3166  59.2900 0074911 252.7665 106.5344 14.92441156597235
Epoch: 2025-10-23T13:29Z
TLE epoch observation values (Epoch: 2025-10-23T13:29:45.542Z)
Latitude
-0.00003°
Longitude
-175.36956°
Altitude
608.57 km
Speed
7.547 km/s
True Right ascension
03h 57m 09s
True Declination
0° 00' 00"
Sunlit
Object was in full shadow at epoch
Visualization orbit readout
Latitude
Unknown
Longitude
Unknown
Altitude
Unknown
Speed
Unknown
Apparent Right ascension
Unknown
Apparent Declination
Unknown
Sunlit
N/A
Visualization observer readout
Local Sidereal Time
01:31:39
Azimuth
Unknown
Elevation
Unknown
Doppler factor
Unknown
Orbital elements
Apogee altitude
639.549 km
Perigee altitude
535.19 km
Semi-major axis
6,965.507 km
Eccentricity
0.00749
Inclination
98.3166°
RAAN
59.29°
Arg. of periapsis
252.7665°
True anomaly
107.35511°
Mean anomaly
106.5344°
Eccentric anomaly
106.94497°
Mean motion
3.73348 °/min
Orbital period
96.42 mins
BSTAR
0.0020614
Loading maneuver chart data...
Computing Atmospheric mass density...
Loading historical data...
Loading historical data...
Loading historical data...
Loading historical data...
Loading historical data...
Loading historical data...
Loading historical data...
Other satellites on launch #49 in the year 2016 (2016-08-09 UTC)

Documentation

Showing up to 5 results
|